星链-30390 (STARLINK-30390 )

导读

STARLINK-30390是美国SpaceX星链星座的卫星,于2023年9月9日发射升空,归属星链互联网卫星星座组网项目,承担低轨卫星互联网覆盖任务。该星延续星链卫星设计方案,部署在近地轨道,为全球提供高速低延迟宽带通信服务,助力星链全球网络布局完善。

基本信息
目录编号:
57819
目录名称:
STARLINK-30390
国际标识:
2023-138M
轨道中心:
EARTH
卫星名称:
星链-30390
卫星全名:
星链-30390 (STARLINK-30390 )
卫星状态:
在轨 (已飞行1091 天)
发射日期:
2023-09-09 UTC
国别 :
美国 (US)
星等 :
--
轨道信息
数据来源 国际轨道数据
星历时间: 2026-09-04T20:28:51+0800
8小时前
查看轨道信息
半长轴: 6861.189km
偏心率: 0.0001685
轨道倾角: 43.004°
近地点辐角 265.938°
升交点赤经 304.625°
平近点角 94.128°
近地点: 481.895km
远地点: 484.209km
周期: 94.267分钟
每日圈数: 15.275793
详细信息
固有亮度:
5
最大亮度:
0.3
卫星平台:
Starlink v2.0 mini
覆盖范围:
全球
运营商:
太空探索技术公司
运营商所在国:
美国
制造商(研发单位):
太空探索技术公司
制造商所在国:
美国
使用方式:
暂无
卫星简介
星链(Starlink)计划是由太空探索技术公司(SpaceX)提出的一个巨型低轨卫星互联网星座项目,计划在2019年至2024年间在太空搭建由约1.2万颗卫星组成的“星链”网络,其中1584颗将部署在地球上空550千米处的近地轨道,并从2020年开始工作。该卫星仍在工作。
2D轨道图
3D轨道图
轨道高度分析图
轨道倾角分析图
轨道综合分析图
查看轨道综合分析图
交会数据列表
事件ID 空间交会对象 最接近时刻(TCA) 交会距离 交会风险概率(CRP) 交会风险指数(CRI) 操作
CDM_260907-060205-744905-781921
2026-09-07T
06:02:36+0000
0.908 km
远距离
1.13798E-5 中风险 0.56
CDM_260907-042805-744905-781921
2026-09-07T
04:28:27+0000
1.021 km
极远距离
7.605038E-6 低风险 0.53
CDM_260829-141604-170905-781922
2026-08-29T
14:16:42+0000
1.998 km
极远距离
2.780529E-6 低风险 0.44
CDM_260907-025405-744905-781921
2026-09-07T
02:54:18+0000
2.924 km
极远距离
5.379874E-7 极低风险 0.3